Location: Davidschlag
(48.4333°N, 14.2833°E)
Time: 07:41:20
(UTC+00:00)

Cosmos 1862 Rocket - Pass Details

Date: 27 February 2020
Orbit: 604 x 633 km, 82.5° (Epoch: 30 March)

Event Time Altitude Azimuth Distance (km) Brightness Sun altitude
Rises 17:03:01 0° 351° (N) 2,876 7.0 -4.2°
Reaches altitude 10° 17:05:15 10° 353° (N) 1,970 6.2 -4.5°
Maximum altitude 17:09:36 76° 79° (E) 635 3.5 -5.2°
Drops below altitude 10° 17:13:57 10° 166° (SSE) 1,968 6.1 -6.0°
Sets 17:16:11 0° 168° (SSE) 2,872 6.9 -6.3°
